Chillicothe, MO

9:34 AM CDT on April 27, 2017 (GMT -0500)
Chillicothe

Weather History for KCDJ - September, 2013

Change the Weather History Date:

Monday, September 2, 2013

  Actual Average (KIRK) Record (KIRK)
Temperature  
Mean Temperature 73 °F -  
Max Temperature 86 °F 82 °F 97 °F (1947)
Min Temperature 60 °F 61 °F 43 °F (1967)
Cooling Degree Days 8    
Growing Degree Days 23 (Base 50)    
Moisture  
Dew Point 56 °F    
Average Humidity 63    
Maximum Humidity 84    
Minimum Humidity 31    
Precipitation  
Precipitation 0.00 in - - ()
Sea Level Pressure  
Sea Level Pressure 29.99 in    
Wind  
Wind Speed 4 mph (North)    
Max Wind Speed 9 mph    
Max Gust Speed -    
Averages and records for this station are not official NWS values.
T = Trace of Precipitation, MM = Missing Value Source: NWS Daily Summary

Daily Weather History Graph

Daily Weather History Graph

Search for Another Location

Airport or City:

Trip Planner

Search our weather history database for the weather conditions in past years. The results will help you decide how hot, cold, wet, or windy it might be!

Date:

Astronomy

Sep. 02, 2013 Rise Set
Actual Time 6:43 AM CDT 7:43 PM CDT
Civil Twilight 6:15 AM CDT 8:11 PM CDT
Nautical Twilight 5:42 AM CDT 8:43 PM CDT
Astronomical Twilight 5:08 AM CDT 9:18 PM CDT
Moon 4:01 AM CDT (9/2) 5:57 PM CDT (9/2)
Length of Visible Light 13h 55m
Length of Day
13h 00m
Waning Crescent, 8% of the Moon is Illuminated
Sep 2
Waning Crescent
Sep 5
New
Sep 12
First Quarter
Sep 19
Full
Sep 26
Last Quarter

Hourly Weather History & Observations

Time (CDT) Temp. Heat Index Dew Point Humidity Pressure Visibility Wind Dir Wind Speed Gust Speed Precip Events Conditions
12:52 AM 64.0 °F - 57.9 °F 80% 29.94 in - Calm Calm - N/A   Unknown
1:52 AM 66.9 °F - 57.9 °F 73% 29.94 in - North 5.8 mph - N/A   Unknown
2:52 AM 66.0 °F - 57.9 °F 75% 29.94 in - North 4.6 mph - N/A   Unknown
3:52 AM 64.9 °F - 57.9 °F 78% 29.96 in - North 5.8 mph - N/A   Unknown
4:52 AM 64.0 °F - 57.9 °F 80% 29.96 in - North 5.8 mph - N/A   Unknown
5:52 AM 63.0 °F - 57.9 °F 84% 29.98 in - Variable 3.5 mph - N/A   Unknown
6:52 AM 62.1 °F - 57.0 °F 84% 29.99 in - North 5.8 mph - N/A   Unknown
7:52 AM 64.0 °F - 57.9 °F 80% 30.01 in - Variable 4.6 mph - N/A   Unknown
8:52 AM 66.0 °F - 57.9 °F 75% 30.03 in - North 8.1 mph - N/A   Unknown
9:52 AM 71.1 °F - 60.1 °F 68% 30.04 in - North 5.8 mph - N/A   Unknown
10:52 AM 73.9 °F - 59.0 °F 59% 30.04 in - Variable 6.9 mph - N/A   Unknown
11:52 AM 77.0 °F - 57.9 °F 52% 30.03 in - Variable 5.8 mph - N/A   Unknown
12:52 PM 79.0 °F - 57.0 °F 47% 30.02 in - NW 5.8 mph - N/A   Unknown
1:52 PM 81.0 °F 80.8 °F 55.9 °F 42% 30.00 in - North - - N/A   Unknown
2:52 PM 82.9 °F 81.9 °F 54.0 °F 37% 29.99 in - Variable 6.9 mph - N/A   Unknown
3:52 PM 84.9 °F - 52.0 °F 32% 29.97 in - Variable 5.8 mph - N/A   Unknown
4:52 PM 84.9 °F - 51.1 °F 31% 29.96 in - NNE 9.2 mph - N/A   Unknown
5:52 PM 84.9 °F - 51.1 °F 31% 29.96 in - North 5.8 mph - N/A   Unknown
6:52 PM 82.0 °F 81.2 °F 53.1 °F 37% 29.96 in - North 3.5 mph - N/A   Unknown
7:52 PM 72.0 °F - 55.9 °F 57% 29.98 in - Calm Calm - N/A   Unknown
8:52 PM 66.0 °F - 55.9 °F 70% 29.99 in - Calm Calm - N/A   Unknown
9:52 PM 63.0 °F - 55.0 °F 75% 30.00 in - Calm Calm - N/A   Unknown
10:52 PM 62.1 °F - 54.0 °F 75% 30.01 in - Calm Calm - N/A   Unknown
11:52 PM 60.1 °F - 54.0 °F 80% 30.02 in - Calm Calm - N/A   Unknown